| time (UTC) | temp F | wind direction | speed MPH | gust MPH | rain 1hr in | rain 24hr in | rain mn in | humidity % | barometer mb |
| 20260906154003 | 72 | 96 | 1.0 | 6.0 | 0.00 | 0.00 | 0.00 | 87 | 1019.1 |
| 20260906153507 | 72 | 130 | 1.0 | 6.0 | 0.00 | 0.00 | 0.00 | 87 | 1019.1 |
| 20260906153019 | 72 | 80 | 2.0 | 5.0 | 0.00 | 0.00 | 0.00 | 87 | 1019.2 |
| 20260906152507 | 72 | 111 | 1.0 | 7.0 | 0.00 | 0.00 | 0.00 | 88 | 1019.3 |
| 20260906152008 | 71 | 255 | 3.0 | 8.0 | 0.00 | 0.00 | 0.00 | 88 | 1019.4 |
| 20260906151524 | 71 | 91 | 1.0 | 8.0 | 0.00 | 0.00 | 0.00 | 88 | 1019.4 |
| 20260906151018 | 71 | 103 | 1.0 | 5.0 | 0.00 | 0.00 | 0.00 | 89 | 1019.4 |
| 20260906150512 | 71 | 129 | 1.0 | 7.0 | 0.00 | 0.00 | 0.00 | 89 | 1019.4 |
| 20260906150028 | 71 | 110 | 2.0 | 7.0 | 0.00 | 0.00 | 0.00 | 89 | 1019.3 |
| 20260906145519 | 70 | 94 | 2.0 | 7.0 | 0.00 | 0.00 | 0.00 | 89 | 1019.4 |
| 20260906145017 | 70 | 68 | 3.0 | 6.0 | 0.00 | 0.00 | 0.00 | 89 | 1019.3 |
| 20260906144534 | 70 | 88 | 2.0 | 5.0 | 0.00 | 0.00 | 0.00 | 90 | 1019.2 |
| 20260906144004 | 70 | 114 | 1.0 | 7.0 | 0.00 | 0.00 | 0.00 | 90 | 1019.2 |
| 20260906143505 | 70 | 129 | 0.0 | 7.0 | 0.00 | 0.00 | 0.00 | 89 | 1019.2 |
| 20260906143012 | 70 | 60 | 1.0 | 7.0 | 0.00 | 0.00 | 0.00 | 89 | 1019.2 |
| 20260906142506 | 70 | 94 | 2.0 | 7.0 | 0.00 | 0.00 | 0.00 | 89 | 1019.2 |
| 20260906142008 | 71 | 89 | 2.0 | 5.0 | 0.00 | 0.00 | 0.00 | 89 | 1019.1 |
| 20260906141529 | 71 | 119 | 2.0 | 5.0 | 0.00 | 0.00 | 0.00 | 89 | 1019.1 |
| 20260906141007 | 71 | 107 | 1.0 | 5.0 | 0.00 | 0.00 | 0.00 | 90 | 1019.1 |
| 20260906140518 | 71 | 76 | 1.0 | 5.0 | 0.00 | 0.00 | 0.00 | 89 | 1019.0 |
| 20260906140026 | 71 | 351 | 1.0 | 5.0 | 0.00 | 0.00 | 0.00 | 89 | 1019.1 |
| 20260906135513 | 71 | 65 | 1.0 | 6.0 | 0.00 | 0.00 | 0.00 | 89 | 1019.1 |
| 20260906135012 | 71 | 58 | 1.0 | 6.0 | 0.00 | 0.00 | 0.00 | 89 | 1019.1 |
| 20260906134531 | 71 | 67 | 3.0 | 6.0 | 0.00 | 0.00 | 0.00 | 89 | 1019.0 |
| 20260906134018 | 71 | 82 | 2.0 | 6.0 | 0.00 | 0.00 | 0.00 | 89 | 1018.8 |
| 20260906133514 | 71 | 101 | 2.0 | 6.0 | 0.00 | 0.00 | 0.00 | 90 | 1018.8 |
| 20260906133034 | 71 | 86 | 3.0 | 6.0 | 0.00 | 0.00 | 0.00 | 90 | 1018.7 |
| 20260906132517 | 71 | 59 | 2.0 | 6.0 | 0.00 | 0.00 | 0.00 | 89 | 1018.7 |
| 20260906132004 | 71 | 94 | 2.0 | 6.0 | 0.00 | 0.00 | 0.00 | 89 | 1018.7 |
| 20260906131516 | 71 | 103 | 2.0 | 6.0 | 0.00 | 0.00 | 0.00 | 89 | 1018.6 |
| 20260906131009 | 70 | 77 | 3.0 | 5.0 | 0.00 | 0.00 | 0.00 | 91 | 1018.5 |
| 20260906130507 | 70 | 103 | 2.0 | 4.0 | 0.00 | 0.00 | 0.00 | 92 | 1018.3 |
| 20260906130021 | 69 | 95 | 2.0 | 4.0 | 0.00 | 0.00 | 0.00 | 92 | 1018.3 |
| 20260906125510 | 69 | 75 | 2.0 | 4.0 | 0.00 | 0.00 | 0.00 | 92 | 1018.3 |
| 20260906125010 | 69 | 102 | 1.0 | 4.0 | 0.00 | 0.00 | 0.00 | 93 | 1018.3 |
| 20260906124538 | 69 | 94 | 1.0 | 4.0 | 0.00 | 0.00 | 0.00 | 93 | 1018.3 |
| 20260906124015 | 69 | 76 | 2.0 | 4.0 | 0.00 | 0.00 | 0.00 | 93 | 1018.2 |
| 20260906123517 | 68 | 72 | 3.0 | 5.0 | 0.00 | 0.00 | 0.00 | 93 | 1018.2 |
| 20260906123033 | 68 | 81 | 3.0 | 5.0 | 0.00 | 0.00 | 0.00 | 94 | 1018.2 |
| 20260906122516 | 68 | 82 | 2.0 | 4.0 | 0.00 | 0.00 | 0.00 | 94 | 1018.1 |
| 20260906122018 | 68 | 98 | 1.0 | 3.0 | 0.00 | 0.00 | 0.00 | 94 | 1018.2 |
| 20260906121531 | 67 | 108 | 1.0 | 3.0 | 0.00 | 0.00 | 0.00 | 94 | 1018.3 |
| 20260906121018 | 67 | 78 | 2.0 | 3.0 | 0.00 | 0.00 | 0.00 | 94 | 1018.3 |
| 20260906120506 | 67 | 110 | 0.0 | 2.0 | 0.00 | 0.00 | 0.00 | 94 | 1018.3 |
| 20260906120018 | 67 | 90 | 1.0 | 2.0 | 0.00 | 0.00 | 0.00 | 94 | 1018.3 |
| 20260906115508 | 67 | 81 | 0.0 | 1.0 | 0.00 | 0.00 | 0.00 | 93 | 1018.1 |
| 20260906115011 | 67 | 81 | 0.0 | 2.0 | 0.00 | 0.00 | 0.00 | 93 | 1018.2 |
| 20260906114542 | 67 | 81 | 0.0 | 2.0 | 0.00 | 0.00 | 0.00 | 93 | 1018.1 |
| 20260906114014 | 67 | 101 | 0.0 | 1.0 | 0.00 | 0.00 | 0.00 | 93 | 1018.1 |
| 20260906113517 | 67 | 94 | 0.0 | 1.0 | 0.00 | 0.00 | 0.00 | 93 | 1018.1 |
| 20260906113032 | 67 | 94 | 0.0 | 2.0 | 0.00 | 0.00 | 0.00 | 93 | 1018.1 |
| 20260906112516 | 67 | 94 | 0.0 | 2.0 | 0.00 | 0.00 | 0.00 | 93 | 1018.0 |
| 20260906112020 | 67 | 79 | 0.0 | 3.0 | 0.00 | 0.00 | 0.00 | 93 | 1018.0 |
| 20260906111536 | 67 | 79 | 0.0 | 3.0 | 0.00 | 0.00 | 0.00 | 93 | 1018.0 |
| 20260906111016 | 67 | 92 | 0.0 | 3.0 | 0.00 | 0.00 | 0.00 | 93 | 1018.1 |
| 20260906110517 | 67 | 92 | 1.0 | 3.0 | 0.00 | 0.00 | 0.00 | 93 | 1018.1 |
| 20260906110031 | 67 | 92 | 0.0 | 2.0 | 0.00 | 0.00 | 0.00 | 92 | 1018.0 |
| 20260906105518 | 67 | 92 | 0.0 | 2.0 | 0.00 | 0.00 | 0.00 | 92 | 1017.8 |
| 20260906105008 | 67 | 92 | 0.0 | 2.0 | 0.00 | 0.00 | 0.00 | 92 | 1017.8 |
| 20260906104532 | 67 | 92 | 0.0 | 2.0 | 0.00 | 0.00 | 0.00 | 92 | 1017.8 |
| 20260906104009 | 68 | 92 | 0.0 | 2.0 | 0.00 | 0.00 | 0.00 | 92 | 1017.8 |
| 20260906103511 | 68 | 92 | 0.0 | 2.0 | 0.00 | 0.00 | 0.00 | 92 | 1018.0 |
| 20260906103029 | 68 | 92 | 0.0 | 0.0 | 0.00 | 0.00 | 0.00 | 92 | 1018.0 |
| 20260906102508 | 68 | 92 | 0.0 | 0.0 | 0.00 | 0.00 | 0.00 | 92 | 1017.9 |
| 20260906102003 | 68 | 92 | 0.0 | 0.0 | 0.00 | 0.00 | 0.00 | 92 | 1017.9 |
| 20260906101506 | 68 | 92 | 0.0 | 1.0 | 0.00 | 0.00 | 0.00 | 91 | 1017.9 |
| 20260906101004 | 68 | 92 | 0.0 | 2.0 | 0.00 | 0.00 | 0.00 | 91 | 1017.8 |
| 20260906100505 | 68 | 92 | 0.0 | 2.0 | 0.00 | 0.00 | 0.00 | 91 | 1017.8 |
| 20260906100014 | 68 | 92 | 0.0 | 1.0 | 0.00 | 0.00 | 0.00 | 91 | 1017.8 |
| 20260906095506 | 68 | 92 | 0.0 | 1.0 | 0.00 | 0.00 | 0.00 | 91 | 1017.8 |
| 20260906095008 | 68 | 92 | 0.0 | 1.0 | 0.00 | 0.00 | 0.00 | 91 | 1017.7 |
| 20260906094511 | 69 | 92 | 0.0 | 1.0 | 0.00 | 0.00 | 0.00 | 91 | 1017.5 |
| 20260906094002 | 69 | 92 | 0.0 | 1.0 | 0.00 | 0.00 | 0.00 | 91 | 1017.5 |
| 20260906093503 | 69 | 92 | 0.0 | 2.0 | 0.00 | 0.00 | 0.00 | 91 | 1017.6 |
| 20260906093005 | 69 | 92 | 1.0 | 2.0 | 0.00 | 0.00 | 0.00 | 91 | 1017.5 |
| 20260906092504 | 69 | 100 | 0.0 | 2.0 | 0.00 | 0.00 | 0.00 | 90 | 1017.4 |
| 20260906092003 | 69 | 88 | 1.0 | 2.0 | 0.00 | 0.00 | 0.00 | 90 | 1017.1 |
| 20260906091506 | 69 | 102 | 0.0 | 3.0 | 0.00 | 0.00 | 0.00 | 90 | 1017.1 |
| 20260906091002 | 69 | 102 | 0.0 | 3.0 | 0.00 | 0.00 | 0.00 | 90 | 1017.0 |
| 20260906090515 | 69 | 89 | 1.0 | 3.0 | 0.00 | 0.00 | 0.00 | 90 | 1017.0 |
| 20260906090018 | 70 | 94 | 1.0 | 3.0 | 0.00 | 0.00 | 0.00 | 90 | 1017.1 |
| 20260906085506 | 70 | 106 | 1.0 | 4.0 | 0.00 | 0.00 | 0.00 | 90 | 1017.1 |
| 20260906085008 | 70 | 97 | 1.0 | 4.0 | 0.00 | 0.00 | 0.00 | 90 | 1017.1 |
| 20260906084520 | 70 | 104 | 0.0 | 4.0 | 0.00 | 0.00 | 0.00 | 90 | 1017.2 |
| 20260906084007 | 70 | 87 | 1.0 | 4.0 | 0.00 | 0.00 | 0.00 | 90 | 1017.1 |
| 20260906083507 | 70 | 101 | 0.0 | 3.0 | 0.00 | 0.00 | 0.00 | 89 | 1017.0 |
| 20260906083004 | 70 | 76 | 0.0 | 3.0 | 0.00 | 0.00 | 0.00 | 89 | 1016.9 |
| 20260906082504 | 70 | 27 | 0.0 | 4.0 | 0.00 | 0.00 | 0.00 | 89 | 1016.8 |
| 20260906082003 | 70 | 100 | 1.0 | 6.0 | 0.00 | 0.00 | 0.00 | 89 | 1016.8 |
| 20260906081511 | 70 | 119 | 2.0 | 6.0 | 0.00 | 0.00 | 0.00 | 89 | 1016.8 |
| 20260906081003 | 70 | 96 | 1.0 | 4.0 | 0.00 | 0.00 | 0.00 | 89 | 1016.9 |
| 20260906080505 | 70 | 111 | 1.0 | 3.0 | 0.00 | 0.00 | 0.00 | 88 | 1016.8 |
| 20260906080010 | 71 | 104 | 0.0 | 3.0 | 0.00 | 0.00 | 0.00 | 88 | 1017.0 |
| 20260906075504 | 71 | 81 | 2.0 | 4.0 | 0.00 | 0.00 | 0.00 | 88 | 1016.9 |
| 20260906075007 | 71 | 107 | 1.0 | 4.0 | 0.00 | 0.00 | 0.00 | 88 | 1016.9 |
| 20260906074517 | 71 | 94 | 1.0 | 5.0 | 0.00 | 0.00 | 0.00 | 88 | 1016.9 |
| 20260906074005 | 71 | 102 | 3.0 | 5.0 | 0.00 | 0.00 | 0.00 | 89 | 1016.9 |
| 20260906073508 | 71 | 89 | 2.0 | 4.0 | 0.00 | 0.00 | 0.00 | 88 | 1017.0 |
| 20260906073025 | 71 | 65 | 1.0 | 4.0 | 0.00 | 0.00 | 0.00 | 88 | 1017.0 |
| 20260906072511 | 71 | 80 | 2.0 | 5.0 | 0.00 | 0.00 | 0.00 | 88 | 1017.0 |
| 20260906072014 | 71 | 70 | 2.0 | 6.0 | 0.00 | 0.00 | 0.00 | 88 | 1017.1 |
| 20260906071527 | 71 | 88 | 2.0 | 6.0 | 0.00 | 0.00 | 0.00 | 88 | 1017.2 |
| 20260906071003 | 71 | 107 | 1.0 | 4.0 | 0.00 | 0.00 | 0.00 | 88 | 1017.2 |
| 20260906070503 | 71 | 92 | 2.0 | 4.0 | 0.00 | 0.00 | 0.00 | 88 | 1017.3 |
| 20260906070007 | 71 | 102 | 0.0 | 3.0 | 0.00 | 0.00 | 0.00 | 88 | 1017.3 |
| 20260906065504 | 71 | 105 | 0.0 | 3.0 | 0.00 | 0.00 | 0.00 | 88 | 1017.4 |
| 20260906065004 | 71 | 91 | 1.0 | 4.0 | 0.00 | 0.00 | 0.00 | 88 | 1017.4 |
| 20260906064508 | 71 | 96 | 1.0 | 4.0 | 0.00 | 0.00 | 0.00 | 89 | 1017.4 |
| 20260906064007 | 71 | 76 | 1.0 | 4.0 | 0.00 | 0.00 | 0.00 | 89 | 1017.4 |
| 20260906063505 | 71 | 91 | 1.0 | 4.0 | 0.00 | 0.00 | 0.00 | 89 | 1017.4 |
| 20260906063018 | 71 | 91 | 1.0 | 3.0 | 0.00 | 0.00 | 0.00 | 89 | 1017.4 |
| 20260906062514 | 71 | 116 | 0.0 | 2.0 | 0.00 | 0.00 | 0.00 | 89 | 1017.3 |
| 20260906062010 | 71 | 116 | 0.0 | 2.0 | 0.00 | 0.00 | 0.00 | 89 | 1017.4 |
| 20260906061527 | 71 | 91 | 1.0 | 2.0 | 0.00 | 0.00 | 0.00 | 89 | 1017.4 |
| 20260906061015 | 71 | 104 | 0.0 | 2.0 | 0.00 | 0.00 | 0.00 | 89 | 1017.5 |
| 20260906060514 | 71 | 104 | 0.0 | 1.0 | 0.00 | 0.00 | 0.00 | 89 | 1017.5 |
| 20260906060029 | 71 | 103 | 0.0 | 2.0 | 0.00 | 0.00 | 0.00 | 89 | 1017.5 |
| 20260906055504 | 71 | 104 | 0.0 | 2.0 | 0.00 | 0.00 | 0.00 | 89 | 1017.5 |
| 20260906055004 | 71 | 104 | 0.0 | 2.0 | 0.00 | 0.00 | 0.00 | 89 | 1017.5 |
| 20260906054509 | 71 | 104 | 0.0 | 1.0 | 0.00 | 0.00 | 0.00 | 89 | 1017.5 |
| 20260906054003 | 71 | 104 | 0.0 | 1.0 | 0.00 | 0.00 | 0.00 | 89 | 1017.5 |
| 20260906053503 | 71 | 104 | 0.0 | 1.0 | 0.00 | 0.00 | 0.00 | 89 | 1017.5 |
| 20260906053012 | 71 | 104 | 0.0 | 0.0 | 0.00 | 0.00 | 0.00 | 89 | 1017.4 |
| 20260906052510 | 71 | 104 | 0.0 | 2.0 | 0.00 | 0.00 | 0.00 | 88 | 1017.4 |
| 20260906052011 | 72 | 104 | 0.0 | 2.0 | 0.00 | 0.00 | 0.00 | 88 | 1017.5 |
| 20260906051520 | 72 | 104 | 0.0 | 2.0 | 0.00 | 0.00 | 0.00 | 88 | 1017.5 |
| 20260906051012 | 72 | 104 | 0.0 | 2.0 | 0.00 | 0.00 | 0.00 | 88 | 1017.5 |
| 20260906050511 | 72 | 104 | 1.0 | 2.0 | 0.00 | 0.00 | 0.00 | 88 | 1017.7 |
| 20260906050030 | 72 | 104 | 0.0 | 2.0 | 0.00 | 0.00 | 0.00 | 88 | 1017.7 |
| 20260906045518 | 72 | 104 | 0.0 | 2.0 | 0.00 | 0.00 | 0.00 | 88 | 1017.8 |
| 20260906045019 | 72 | 104 | 0.0 | 2.0 | 0.00 | 0.00 | 0.00 | 87 | 1017.7 |
| 20260906044533 | 72 | 104 | 0.0 | 2.0 | 0.00 | 0.00 | 0.00 | 87 | 1017.8 |
| 20260906044002 | 72 | 86 | 0.0 | 2.0 | 0.00 | 0.00 | 0.00 | 87 | 1017.9 |
| 20260906043502 | 72 | 95 | 0.0 | 2.0 | 0.00 | 0.00 | 0.00 | 87 | 1017.9 |
| 20260906043013 | 72 | 106 | 0.0 | 4.0 | 0.00 | 0.00 | 0.00 | 87 | 1017.8 |
| 20260906042503 | 72 | 92 | 2.0 | 4.0 | 0.00 | 0.00 | 0.00 | 88 | 1017.8 |
| 20260906042007 | 72 | 86 | 1.0 | 2.0 | 0.00 | 0.00 | 0.00 | 87 | 1017.8 |
| 20260906041516 | 72 | 105 | 0.0 | 1.0 | 0.00 | 0.00 | 0.00 | 87 | 1017.9 |
| 20260906041009 | 72 | 98 | 0.0 | 3.0 | 0.00 | 0.00 | 0.00 | 87 | 1017.8 |
| 20260906040511 | 72 | 98 | 0.0 | 3.0 | 0.00 | 0.00 | 0.00 | 87 | 1017.7 |
| 20260906040029 | 72 | 106 | 0.0 | 4.0 | 0.00 | 0.00 | 0.00 | 88 | 1017.8 |
| 20260906035512 | 72 | 112 | 2.0 | 4.0 | 0.00 | 0.00 | 0.00 | 88 | 1017.8 |
| 20260906035015 | 72 | 82 | 0.0 | 2.0 | 0.00 | 0.00 | 0.00 | 87 | 1017.8 |
| 20260906034528 | 72 | 98 | 0.0 | 2.0 | 0.00 | 0.00 | 0.00 | 87 | 1017.7 |
| 20260906034015 | 72 | 98 | 0.0 | 2.0 | 0.00 | 0.00 | 0.00 | 87 | 1017.6 |
| 20260906033515 | 72 | 98 | 0.0 | 2.0 | 0.00 | 0.00 | 0.00 | 86 | 1017.6 |
| 20260906033044 | 72 | 98 | 0.0 | 2.0 | 0.00 | 0.00 | 0.00 | 86 | 1017.6 |
| 20260906032518 | 72 | 98 | 0.0 | 1.0 | 0.00 | 0.00 | 0.00 | 86 | 1017.7 |
| 20260906032003 | 73 | 98 | 0.0 | 2.0 | 0.00 | 0.00 | 0.00 | 86 | 1017.7 |
| 20260906031512 | 73 | 98 | 0.0 | 2.0 | 0.00 | 0.00 | 0.00 | 86 | 1017.6 |
| 20260906031008 | 73 | 98 | 0.0 | 2.0 | 0.00 | 0.00 | 0.00 | 86 | 1017.6 |
| 20260906030507 | 73 | 98 | 0.0 | 2.0 | 0.00 | 0.00 | 0.00 | 85 | 1017.7 |
| 20260906030021 | 73 | 98 | 0.0 | 2.0 | 0.00 | 0.00 | 0.00 | 85 | 1017.8 |
| 20260906025516 | 73 | 98 | 0.0 | 2.0 | 0.00 | 0.00 | 0.00 | 85 | 1017.7 |
| 20260906025012 | 73 | 98 | 0.0 | 1.0 | 0.00 | 0.00 | 0.00 | 85 | 1017.9 |
| 20260906024541 | 73 | 98 | 0.0 | 1.0 | 0.00 | 0.00 | 0.00 | 85 | 1017.9 |
| 20260906024014 | 73 | 98 | 0.0 | 2.0 | 0.00 | 0.00 | 0.00 | 85 | 1018.0 |
| 20260906023516 | 73 | 98 | 0.0 | 2.0 | 0.00 | 0.00 | 0.00 | 85 | 1017.9 |
| 20260906023028 | 73 | 98 | 0.0 | 2.0 | 0.00 | 0.00 | 0.00 | 85 | 1017.7 |
| 20260906022516 | 73 | 98 | 0.0 | 1.0 | 0.00 | 0.00 | 0.00 | 85 | 1017.7 |
| 20260906022015 | 74 | 98 | 0.0 | 0.0 | 0.00 | 0.00 | 0.00 | 85 | 1017.7 |
| 20260906021531 | 74 | 98 | 0.0 | 0.0 | 0.00 | 0.00 | 0.00 | 85 | 1017.5 |
| 20260906021018 | 74 | 98 | 0.0 | 2.0 | 0.00 | 0.00 | 0.00 | 84 | 1017.3 |
| 20260906020508 | 74 | 98 | 0.0 | 2.0 | 0.00 | 0.00 | 0.00 | 84 | 1017.1 |
| 20260906020014 | 74 | 96 | 0.0 | 1.0 | 0.00 | 0.00 | 0.00 | 83 | 1016.9 |
| 20260906015507 | 74 | 29 | 0.0 | 0.0 | 0.00 | 0.00 | 0.00 | 83 | 1016.7 |
| 20260906015007 | 75 | 29 | 0.0 | 0.0 | 0.00 | 0.00 | 0.00 | 83 | 1016.6 |
| 20260906014537 | 75 | 29 | 0.0 | 1.0 | 0.00 | 0.00 | 0.00 | 82 | 1016.5 |
| 20260906014012 | 75 | 29 | 0.0 | 1.0 | 0.00 | 0.00 | 0.00 | 82 | 1016.4 |
| 20260906013512 | 75 | 29 | 0.0 | 1.0 | 0.00 | 0.00 | 0.00 | 81 | 1016.3 |
| 20260906013040 | 76 | 29 | 0.0 | 1.0 | 0.00 | 0.00 | 0.00 | 81 | 1016.2 |
| 20260906012519 | 76 | 29 | 0.0 | 2.0 | 0.00 | 0.00 | 0.00 | 81 | 1016.1 |
| 20260906012004 | 76 | 29 | 0.0 | 2.0 | 0.00 | 0.00 | 0.00 | 80 | 1016.1 |
| 20260906011506 | 77 | 34 | 0.0 | 1.0 | 0.00 | 0.00 | 0.00 | 79 | 1015.9 |
| 20260906011003 | 77 | 67 | 0.0 | 1.0 | 0.00 | 0.00 | 0.00 | 78 | 1015.7 |
| 20260906010503 | 78 | 67 | 0.0 | 1.0 | 0.00 | 0.00 | 0.00 | 77 | 1015.7 |
| 20260906010012 | 78 | 67 | 0.0 | 0.0 | 0.00 | 0.00 | 0.00 | 76 | 1015.7 |
| 20260906005507 | 78 | 67 | 0.0 | 1.0 | 0.00 | 0.00 | 0.00 | 76 | 1015.8 |
| 20260906005011 | 79 | 67 | 0.0 | 1.0 | 0.00 | 0.00 | 0.00 | 75 | 1015.8 |
| 20260906004521 | 79 | 67 | 0.0 | 1.0 | 0.00 | 0.00 | 0.00 | 75 | 1015.8 |
| 20260906004010 | 80 | 67 | 0.0 | 1.0 | 0.00 | 0.00 | 0.00 | 74 | 1015.6 |
| 20260906003512 | 80 | 67 | 0.0 | 2.0 | 0.00 | 0.00 | 0.00 | 73 | 1015.5 |
| 20260906003024 | 81 | 67 | 0.0 | 2.0 | 0.00 | 0.00 | 0.00 | 73 | 1015.5 |
| 20260906002511 | 81 | 67 | 0.0 | 2.0 | 0.00 | 0.00 | 0.00 | 72 | 1015.5 |
| 20260906002012 | 81 | 67 | 0.0 | 1.0 | 0.00 | 0.00 | 0.00 | 72 | 1015.5 |
| 20260906001537 | 81 | 67 | 0.0 | 1.0 | 0.00 | 0.00 | 0.00 | 72 | 1015.5 |
| 20260906001015 | 81 | 156 | 0.0 | 2.0 | 0.00 | 0.00 | 0.00 | 71 | 1015.4 |
| 20260906000503 | 81 | 196 | 0.0 | 2.0 | 0.00 | 0.00 | 0.00 | 72 | 1015.4 |
| 20260906000010 | 81 | 122 | 0.0 | 4.0 | 0.00 | 0.00 | 0.00 | 71 | 1015.3 |
| 20260905235506 | 81 | 99 | 1.0 | 4.0 | 0.00 | 0.00 | 0.00 | 71 | 1015.3 |
| 20260905235008 | 81 | 129 | 0.0 | 4.0 | 0.00 | 0.00 | 0.00 | 71 | 1015.2 |
| 20260905234514 | 82 | 113 | 1.0 | 4.0 | 0.00 | 0.00 | 0.00 | 71 | 1015.1 |
| 20260905234019 | 82 | 83 | 1.0 | 6.0 | 0.00 | 0.00 | 0.00 | 70 | 1015.0 |
| 20260905233510 | 82 | 94 | 2.0 | 5.0 | 0.00 | 0.00 | 0.00 | 69 | 1015.2 |
| 20260905233033 | 82 | 71 | 1.0 | 4.0 | 0.00 | 0.00 | 0.00 | 70 | 1015.2 |
| 20260905232510 | 82 | 123 | 1.0 | 6.0 | 0.00 | 0.00 | 0.00 | 69 | 1015.2 |
| 20260905232013 | 82 | 68 | 2.0 | 9.0 | 0.00 | 0.00 | 0.00 | 70 | 1015.1 |
| 20260905231540 | 82 | 91 | 4.0 | 9.0 | 0.00 | 0.00 | 0.00 | 69 | 1014.9 |
| 20260905231015 | 82 | 77 | 2.0 | 6.0 | 0.00 | 0.00 | 0.00 | 69 | 1014.8 |
| 20260905230514 | 82 | 113 | 1.0 | 8.0 | 0.00 | 0.00 | 0.00 | 69 | 1014.8 |
| 20260905230030 | 82 | 108 | 2.0 | 10.0 | 0.00 | 0.00 | 0.00 | 69 | 1014.8 |
| 20260905225513 | 82 | 120 | 5.0 | 10.0 | 0.00 | 0.00 | 0.00 | 68 | 1014.8 |
| 20260905225016 | 82 | 105 | 4.0 | 8.0 | 0.00 | 0.00 | 0.00 | 68 | 1014.6 |
| 20260905224514 | 82 | 89 | 2.0 | 12.0 | 0.00 | 0.00 | 0.00 | 69 | 1014.6 |
| 20260905224005 | 82 | 98 | 4.0 | 12.0 | 0.00 | 0.00 | 0.00 | 69 | 1014.5 |
| 20260905223507 | 82 | 89 | 3.0 | 12.0 | 0.00 | 0.00 | 0.00 | 69 | 1014.4 |
| 20260905223019 | 82 | 77 | 7.0 | 13.0 | 0.00 | 0.00 | 0.00 | 68 | 1014.4 |
| 20260905222513 | 82 | 113 | 8.0 | 13.0 | 0.00 | 0.00 | 0.00 | 69 | 1014.3 |
| 20260905222012 | 82 | 93 | 5.0 | 12.0 | 0.00 | 0.00 | 0.00 | 69 | 1014.3 |
| 20260905221527 | 82 | 89 | 8.0 | 12.0 | 0.00 | 0.00 | 0.00 | 69 | 1014.3 |
| 20260905221014 | 82 | 106 | 5.0 | 11.0 | 0.00 | 0.00 | 0.00 | 69 | 1014.3 |
| 20260905220514 | 82 | 99 | 5.0 | 11.0 | 0.00 | 0.00 | 0.00 | 72 | 1014.5 |
| 20260905220029 | 81 | 101 | 5.0 | 10.0 | 0.00 | 0.00 | 0.00 | 72 | 1014.6 |
| 20260905215516 | 81 | 114 | 5.0 | 9.0 | 0.00 | 0.00 | 0.00 | 71 | 1014.7 |
| 20260905215013 | 81 | 111 | 2.0 | 9.0 | 0.00 | 0.00 | 0.00 | 73 | 1014.8 |
| 20260905214532 | 81 | 87 | 3.0 | 8.0 | 0.00 | 0.00 | 0.00 | 72 | 1014.8 |
| 20260905214015 | 81 | 122 | 3.0 | 8.0 | 0.00 | 0.00 | 0.00 | 73 | 1014.9 |
| 20260905213522 | 81 | 101 | 3.0 | 9.0 | 0.00 | 0.00 | 0.00 | 73 | 1015.0 |
| 20260905213017 | 81 | 82 | 5.0 | 9.0 | 0.00 | 0.00 | 0.00 | 72 | 1015.0 |
| 20260905212519 | 81 | 98 | 4.0 | 9.0 | 0.00 | 0.00 | 0.00 | 71 | 1014.9 |
| 20260905212008 | 81 | 98 | 3.0 | 11.0 | 0.00 | 0.00 | 0.00 | 72 | 1014.9 |
| 20260905211534 | 81 | 94 | 6.0 | 11.0 | 0.00 | 0.00 | 0.00 | 70 | 1015.0 |
| 20260905211019 | 81 | 91 | 7.0 | 12.0 | 0.00 | 0.00 | 0.00 | 71 | 1014.9 |
| 20260905210515 | 82 | 88 | 6.0 | 14.0 | 0.00 | 0.00 | 0.00 | 71 | 1014.9 |
| 20260905210038 | 82 | 95 | 7.0 | 14.0 | 0.00 | 0.00 | 0.00 | 71 | 1014.9 |
| 20260905205513 | 83 | 103 | 6.0 | 12.0 | 0.00 | 0.00 | 0.00 | 70 | 1014.9 |
| 20260905205015 | 83 | 106 | 8.0 | 13.0 | 0.00 | 0.00 | 0.00 | 70 | 1014.8 |
| 20260905204533 | 82 | 62 | 7.0 | 14.0 | 0.00 | 0.00 | 0.00 | 71 | 1014.7 |
| 20260905204017 | 82 | 79 | 9.0 | 14.0 | 0.00 | 0.00 | 0.00 | 72 | 1014.7 |
| 20260905203516 | 82 | 99 | 9.0 | 12.0 | 0.00 | 0.00 | 0.00 | 71 | 1014.8 |
| 20260905203039 | 81 | 109 | 7.0 | 14.0 | 0.00 | 0.00 | 0.00 | 73 | 1015.0 |
| 20260905202518 | 81 | 101 | 5.0 | 14.0 | 0.00 | 0.00 | 0.00 | 72 | 1015.1 |
| 20260905202018 | 81 | 89 | 9.0 | 14.0 | 0.00 | 0.00 | 0.00 | 72 | 1015.2 |
| 20260905201520 | 81 | 75 | 8.0 | 12.0 | 0.00 | 0.00 | 0.00 | 73 | 1015.3 |
| 20260905201007 | 81 | 120 | 9.0 | 15.0 | 0.00 | 0.00 | 0.00 | 75 | 1015.5 |
| 20260905200513 | 81 | 70 | 9.0 | 15.0 | 0.00 | 0.00 | 0.00 | 75 | 1015.5 |
| 20260905200033 | 81 | 94 | 7.0 | 11.0 | 0.00 | 0.00 | 0.00 | 75 | 1015.9 |
| 20260905195515 | 80 | 63 | 8.0 | 13.0 | 0.00 | 0.00 | 0.00 | 75 | 1016.1 |
| 20260905195019 | 80 | 77 | 8.0 | 13.0 | 0.00 | 0.00 | 0.00 | 76 | 1016.1 |
| 20260905194530 | 80 | 94 | 7.0 | 13.0 | 0.00 | 0.00 | 0.00 | 76 | 1016.1 |
| 20260905194015 | 80 | 80 | 8.0 | 12.0 | 0.00 | 0.00 | 0.00 | 77 | 1016.2 |
| 20260905193515 | 80 | 93 | 7.0 | 12.0 | 0.00 | 0.00 | 0.00 | 79 | 1016.2 |
| 20260905193033 | 80 | 83 | 8.0 | 11.0 | 0.00 | 0.00 | 0.00 | 77 | 1016.2 |
| 20260905192510 | 80 | 80 | 4.0 | 8.0 | 0.00 | 0.00 | 0.00 | 77 | 1016.3 |
| 20260905192006 | 80 | 92 | 5.0 | 8.0 | 0.00 | 0.00 | 0.00 | 78 | 1016.4 |
| 20260905191515 | 79 | 79 | 2.0 | 6.0 | 0.00 | 0.00 | 0.00 | 79 | 1016.5 |
| 20260905191012 | 79 | 72 | 2.0 | 6.0 | 0.00 | 0.00 | 0.00 | 79 | 1016.6 |
| 20260905190510 | 79 | 79 | 3.0 | 7.0 | 0.00 | 0.00 | 0.00 | 79 | 1016.7 |
| 20260905190023 | 79 | 88 | 3.0 | 7.0 | 0.00 | 0.00 | 0.00 | 80 | 1016.8 |
| 20260905185512 | 79 | 65 | 1.0 | 6.0 | 0.00 | 0.00 | 0.00 | 79 | 1017.0 |
| 20260905185019 | 79 | 110 | 3.0 | 6.0 | 0.00 | 0.00 | 0.00 | 79 | 1016.9 |
| 20260905184535 | 79 | 75 | 2.0 | 5.0 | 0.00 | 0.00 | 0.00 | 79 | 1016.8 |
| 20260905184018 | 79 | 70 | 4.0 | 5.0 | 0.00 | 0.00 | 0.00 | 80 | 1016.9 |
| 20260905183526 | 78 | 87 | 2.0 | 5.0 | 0.00 | 0.00 | 0.00 | 81 | 1016.9 |
| 20260905183032 | 78 | 144 | 1.0 | 5.0 | 0.00 | 0.00 | 0.00 | 82 | 1016.9 |
| 20260905182522 | 78 | 76 | 2.0 | 5.0 | 0.00 | 0.00 | 0.00 | 79 | 1017.0 |
| 20260905182021 | 78 | 82 | 3.0 | 5.0 | 0.00 | 0.00 | 0.00 | 80 | 1017.0 |
| 20260905181531 | 77 | 97 | 1.0 | 7.0 | 0.00 | 0.00 | 0.00 | 82 | 1017.0 |
| 20260905181010 | 77 | 100 | 4.0 | 6.0 | 0.00 | 0.00 | 0.00 | 81 | 1017.0 |
| 20260905180507 | 77 | 86 | 1.0 | 6.0 | 0.00 | 0.00 | 0.00 | 82 | 1017.2 |
| 20260905180020 | 77 | 87 | 1.0 | 5.0 | 0.00 | 0.00 | 0.00 | 83 | 1017.2 |
| 20260905175519 | 76 | 64 | 3.0 | 5.0 | 0.00 | 0.00 | 0.00 | 84 | 1017.3 |
| 20260905175010 | 76 | 58 | 2.0 | 4.0 | 0.00 | 0.00 | 0.00 | 84 | 1017.3 |
| 20260905174527 | 75 | 86 | 0.0 | 5.0 | 0.00 | 0.00 | 0.00 | 85 | 1017.3 |
| 20260905174019 | 75 | 89 | 1.0 | 6.0 | 0.00 | 0.00 | 0.00 | 85 | 1017.4 |
| 20260905173512 | 75 | 79 | 2.0 | 6.0 | 0.00 | 0.00 | 0.00 | 85 | 1017.6 |
| 20260905173037 | 75 | 69 | 2.0 | 6.0 | 0.00 | 0.00 | 0.00 | 85 | 1017.8 |
| 20260905172515 | 75 | 97 | 2.0 | 6.0 | 0.00 | 0.00 | 0.00 | 85 | 1017.8 |
| 20260905172015 | 75 | 84 | 2.0 | 7.0 | 0.00 | 0.00 | 0.00 | 86 | 1017.8 |
| 20260905171530 | 75 | 94 | 4.0 | 7.0 | 0.00 | 0.00 | 0.00 | 85 | 1017.8 |
| 20260905171015 | 75 | 77 | 4.0 | 7.0 | 0.00 | 0.00 | 0.00 | 85 | 1018.0 |
| 20260905170516 | 74 | 99 | 3.0 | 7.0 | 0.00 | 0.00 | 0.00 | 86 | 1018.0 |
| 20260905170031 | 74 | 91 | 1.0 | 4.0 | 0.00 | 0.00 | 0.00 | 86 | 1018.1 |
| 20260905165508 | 74 | 93 | 0.0 | 4.0 | 0.00 | 0.00 | 0.00 | 87 | 1018.2 |
| 20260905165008 | 74 | 114 | 0.0 | 5.0 | 0.00 | 0.00 | 0.00 | 87 | 1018.1 |
| 20260905164518 | 73 | 130 | 2.0 | 5.0 | 0.00 | 0.00 | 0.00 | 88 | 1018.0 |
| 20260905164010 | 73 | 82 | 2.0 | 5.0 | 0.00 | 0.00 | 0.00 | 88 | 1018.0 |
| 20260905163508 | 73 | 87 | 3.0 | 7.0 | 0.00 | 0.00 | 0.00 | 88 | 1018.1 |
| 20260905163006 | 73 | 103 | 5.0 | 7.0 | 0.00 | 0.00 | 0.00 | 88 | 1018.1 |
| 20260905162508 | 73 | 116 | 1.0 | 7.0 | 0.00 | 0.00 | 0.00 | 88 | 1018.0 |
| 20260905162005 | 73 | 94 | 4.0 | 7.0 | 0.00 | 0.00 | 0.00 | 88 | 1017.9 |
| 20260905161526 | 73 | 96 | 4.0 | 7.0 | 0.00 | 0.00 | 0.00 | 88 | 1017.7 |
| 20260905161006 | 73 | 79 | 4.0 | 7.0 | 0.00 | 0.00 | 0.00 | 88 | 1017.7 |
| 20260905160503 | 72 | 94 | 3.0 | 7.0 | 0.00 | 0.00 | 0.00 | 88 | 1017.7 |
| 20260905160013 | 72 | 73 | 3.0 | 7.0 | 0.00 | 0.00 | 0.00 | 89 | 1017.7 |
| 20260905155509 | 72 | 91 | 3.0 | 8.0 | 0.00 | 0.00 | 0.00 | 89 | 1017.7 |
| 20260905155007 | 72 | 85 | 5.0 | 8.0 | 0.00 | 0.00 | 0.00 | 90 | 1017.6 |
| 20260905154519 | 72 | 68 | 5.0 | 8.0 | 0.00 | 0.00 | 0.00 | 91 | 1017.6 |